Weather History for Cairns, QU

Change the Weather History Date:

Thursday, July 18, 2013

  Actual Average Record
Temperature  
Mean Temperature 73 °F -  
Max Temperature 77 °F 79 °F 82 °F (1998)
Min Temperature 69 °F 63 °F 50 °F (2000)
Cooling Degree Days 8    
Growing Degree Days 23 (Base 50)    
Moisture  
Dew Point 66 °F    
Average Humidity 79    
Maximum Humidity 100    
Minimum Humidity 60    
Precipitation  
Precipitation 0.16 in 0.03 in - ()
Sea Level Pressure  
Sea Level Pressure 29.98 in    
Wind  
Wind Speed 11 mph ()    
Max Wind Speed 20 mph    
Max Gust Speed -    
Visibility 6.7 miles    
Events Rain    
Averages and records for this station are not official NWS values.
T = Trace of Precipitation, MM = Missing Value Source: Averaged Metar Reports

Daily Weather History Graph

Daily Weather History Graph

Search for Another Location

Airport:

Trip Planner

Search our weather history database for the weather conditions in past years. The results will help you decide how hot, cold, wet, or windy it might be!

Date:

Astronomy

Jul. 18, 2013 Rise Set
Actual Time 6:46 AM AEST 6:00 PM AEST
Civil Twilight 6:23 AM AEST 6:23 PM AEST
Nautical Twilight 5:56 AM AEST 6:50 PM AEST
Astronomical Twilight 5:30 AM AEST 7:16 PM AEST
Moon 1:28 PM AEST (7/18) 1:42 AM AEST (7/18)
Length of Visible Light 12h 00m
Length of Day
11h 14m
Waxing Gibbous, 71% of the Moon is Illuminated
Jul 18
Waxing Gibbous
Jul 23
Full
Jul 30
Last Quarter
Aug 7
New
Aug 14
First Quarter

Hourly Weather History & Observations

Time (AEST) Temp. Dew Point Humidity Pressure Visibility Wind Dir Wind Speed Gust Speed Precip Events Conditions
12:00 AM 70 °F 64 °F 77% 30.01 in - SSE 20.1 mph - -  
12:00 AM 69.8 °F 64.4 °F 83% 30.01 in 6.2 mi SSE 10.4 mph - N/A   Scattered Clouds
12:30 AM 69.8 °F 64.4 °F 83% 29.98 in 6.2 mi SSE 10.4 mph - N/A   Scattered Clouds
1:00 AM 69.8 °F 64.4 °F 83% 29.98 in 6.2 mi South 10.4 mph - N/A   Scattered Clouds
1:30 AM 69.8 °F 64.4 °F 83% 29.98 in 6.2 mi South 10.4 mph - N/A   Partly Cloudy
2:00 AM 69.8 °F 64.4 °F 83% 29.98 in 6.2 mi South 9.2 mph - N/A   Partly Cloudy
2:30 AM 69.8 °F 64.4 °F 83% 29.98 in 6.2 mi SSE 9.2 mph - N/A   Partly Cloudy
3:00 AM 69 °F 64 °F 79% 29.96 in - South 9.2 mph - -  
3:00 AM 69.8 °F 64.4 °F 83% 29.95 in 6.2 mi South 9.2 mph - N/A   Scattered Clouds
3:30 AM 69.8 °F 64.4 °F 83% 29.95 in 6.2 mi SSE 10.4 mph - N/A   Partly Cloudy
4:00 AM 69 °F 64 °F 79% 29.97 in - South 9.2 mph - -  
4:00 AM 69.8 °F 64.4 °F 83% 29.95 in 6.2 mi South 9.2 mph - N/A   Partly Cloudy
4:30 AM 69.8 °F 64.4 °F 83% 29.95 in 6.2 mi SSE 10.4 mph - N/A   Partly Cloudy
5:00 AM 69.8 °F 64.4 °F 83% 29.95 in 6.2 mi South 10.4 mph - N/A   Scattered Clouds
5:30 AM 69.8 °F 62.6 °F 78% 29.95 in 6.2 mi South 11.5 mph - N/A   Partly Cloudy
6:00 AM 70 °F 63 °F 73% 29.97 in 19 mi South 12.7 mph - -   Partly Cloudy
6:00 AM 69.8 °F 62.6 °F 78% 29.98 in 6.2 mi South 12.7 mph - N/A   Partly Cloudy
6:30 AM 69.8 °F 62.6 °F 78% 29.98 in 6.2 mi South 12.7 mph - N/A   Partly Cloudy
7:00 AM 70 °F 63 °F 72% 29.99 in - South 11.5 mph - -  
7:00 AM 69.8 °F 62.6 °F 78% 29.98 in 6.2 mi South 11.5 mph - N/A   Partly Cloudy
7:30 AM 69.8 °F 62.6 °F 78% 29.98 in 6.2 mi South 11.5 mph - N/A   Partly Cloudy
8:00 AM 71.6 °F 62.6 °F 73% 29.98 in 6.2 mi South 10.4 mph - N/A   Partly Cloudy
8:30 AM 73.4 °F 62.6 °F 69% 30.01 in 6.2 mi South 10.4 mph - N/A   Partly Cloudy
9:00 AM 75 °F 64 °F 60% 30.01 in 19 mi South 10.4 mph - -   Partly Cloudy
9:00 AM 75.2 °F 64.4 °F 69% 30.01 in 6.2 mi South 10.4 mph - N/A   Partly Cloudy
10:00 AM 77.0 °F 64.4 °F 65% 30.01 in 6.2 mi SSE 12.7 mph - N/A   Mostly Cloudy
10:30 AM 75.2 °F 64.4 °F 69% 30.01 in 6.2 mi SSE 16.1 mph - N/A   Mostly Cloudy
11:00 AM 75.2 °F 64.4 °F 69% 30.01 in 6.2 mi SSE 15.0 mph - N/A   Mostly Cloudy
11:30 AM 77.0 °F 64.4 °F 65% 30.01 in 6.2 mi SSE 9.2 mph - N/A   Mostly Cloudy
12:00 PM 75.2 °F 66.2 °F 73% 30.01 in 6.2 mi SSE 12.7 mph - N/A   Mostly Cloudy
12:30 PM 77.0 °F 66.2 °F 69% 29.98 in 6.2 mi SSE 9.2 mph - N/A   Mostly Cloudy
1:00 PM 75 °F 66 °F 67% 29.99 in - SSE 15.0 mph - -  
1:00 PM 75.2 °F 66.2 °F 73% 29.98 in 6.2 mi SSE 15.0 mph - N/A   Mostly Cloudy
1:30 PM 75.2 °F 68.0 °F 78% 29.95 in 6.2 mi South 11.5 mph - N/A   Mostly Cloudy
2:00 PM 75.2 °F 66.2 °F 73% 29.95 in 6.2 mi South 10.4 mph - N/A   Mostly Cloudy
2:30 PM 77.0 °F 66.2 °F 69% 29.95 in 6.2 mi South 12.7 mph - N/A   Mostly Cloudy
3:00 PM 75 °F 67 °F 70% 29.95 in 16 mi South 6.9 mph - -   Mostly Cloudy
3:00 PM 75.2 °F 68.0 °F 78% 29.95 in 6.2 mi South 6.9 mph - N/A   Mostly Cloudy
3:30 PM 75.2 °F 68.0 °F 78% 29.95 in 6.2 mi South 10.4 mph - N/A   Mostly Cloudy
4:00 PM 76 °F 67 °F 68% 29.95 in - SSE 10.4 mph - -  
4:00 PM 77.0 °F 68.0 °F 74% 29.95 in 6.2 mi SSE 10.4 mph - N/A   Mostly Cloudy
4:30 PM 77.0 °F 66.2 °F 69% 29.95 in 6.2 mi SSE 15.0 mph - N/A   Mostly Cloudy
5:00 PM 75.2 °F 68.0 °F 78% 29.95 in 6.2 mi SSE 15.0 mph - N/A Rain Light Rain Showers
5:30 PM 73.4 °F 68.0 °F 83% 29.95 in 6.2 mi South 11.5 mph - N/A   Mostly Cloudy
6:00 PM 74 °F 68 °F 75% 29.96 in - SSE 10.4 mph - -   Overcast
6:00 PM 73.4 °F 68.0 °F 83% 29.95 in 5.0 mi SSE 10.4 mph - N/A Rain Light Rain Showers
6:30 PM 73.4 °F 68.0 °F 83% 29.95 in 3.7 mi South 9.2 mph - N/A Rain Light Rain Showers
7:00 PM 72 °F 69 °F 88% 29.98 in - SSE 10.4 mph - -  
7:00 PM 71.6 °F 69.8 °F 94% 29.98 in 6.2 mi SSE 10.4 mph - N/A   Mostly Cloudy
7:30 PM 71.6 °F 69.8 °F 94% 29.98 in 6.2 mi SSE 10.4 mph - N/A   Mostly Cloudy
8:00 PM 71.6 °F 68.0 °F 88% 29.98 in 3.7 mi South 10.4 mph - N/A Rain Light Rain Showers
8:19 PM 71.6 °F 68.0 °F 88% 30.01 in 6.2 mi SSE 9.2 mph - N/A Rain Light Rain Showers
8:30 PM 71.6 °F 68.0 °F 88% 30.01 in 6.2 mi South 9.2 mph - N/A Rain Light Rain Showers
9:00 PM 71 °F 69 °F 90% 30.01 in - South 10.4 mph - -   Overcast
9:00 PM 71.6 °F 68.0 °F 88% 30.01 in 6.2 mi South 10.4 mph - N/A Rain Light Rain Showers
9:19 PM 69.8 °F 69.8 °F 100% 30.01 in 3.1 mi South 9.2 mph - N/A Rain Rain Showers
9:30 PM 69.8 °F 68.0 °F 94% 30.01 in 6.2 mi South 9.2 mph - N/A Rain Light Rain Showers
10:00 PM 71 °F 68 °F 87% 30.01 in - South 9.2 mph - -  
10:00 PM 71.6 °F 68.0 °F 88% 30.01 in 6.2 mi South 9.2 mph - N/A   Mostly Cloudy
10:30 PM 71.6 °F 68.0 °F 88% 29.98 in 6.2 mi South 9.2 mph - N/A   Scattered Clouds
11:00 PM 71.6 °F 68.0 °F 88% 29.98 in 6.2 mi South 12.7 mph - N/A   Scattered Clouds
11:30 PM 71.6 °F 68.0 °F 88% 29.98 in 6.2 mi South 12.7 mph - N/A   Scattered Clouds